Hourly Weather Godziszow

Today, 29 November, Sunday

Time Temperature Precipitation Wind Pressure Humidity
00:00 0°C° 0.1 mm 1 mps 735 mmHg 92%
01:00 -2°C° 0 mm 2 mps 735 mmHg 93%
02:00 -2°C° 0.3 mm 2 mps 735 mmHg 94%
03:00 -2°C° 0.3 mm 2 mps 734 mmHg 95%
04:00 -2°C° 0.3 mm 2 mps 734 mmHg 96%
05:00 -2°C° 0.7 mm 2 mps 734 mmHg 96%
06:00 -2°C° 0.7 mm 2 mps 734 mmHg 96%
07:00 -1°C° 0.7 mm 2 mps 734 mmHg 96%
08:00 -1°C° 0.5 mm 2 mps 734 mmHg 95%
09:00 -1°C° 0.5 mm 2 mps 734 mmHg 94%
10:00 -1°C° 0.5 mm 2 mps 734 mmHg 93%
11:00 -1°C° 0.3 mm 2 mps 734 mmHg 92%
12:00 -1°C° 0.3 mm 2 mps 734 mmHg 91%
13:00 +1°C° 0.3 mm 2 mps 734 mmHg 90%
14:00 +1°C° 0.2 mm 1 mps 734 mmHg 92%
15:00 0°C° 0.2 mm 1 mps 734 mmHg 94%
16:00 -1°C° 0.2 mm 0 mps 734 mmHg 97%
17:00 -1°C° 0.2 mm 0 mps 735 mmHg 97%
18:00 -2°C° 0.2 mm 0 mps 735 mmHg 97%
19:00 -2°C° 0.2 mm 0 mps 735 mmHg 97%
20:00 -1°C° 0.2 mm 1 mps 735 mmHg 96%
21:00 -1°C° 0.2 mm 1 mps 736 mmHg 96%
22:00 -1°C° 0.2 mm 1 mps 736 mmHg 96%
23:00 -1°C° 0.1 mm 1 mps 736 mmHg 96%

Tomorrow, 30 November, Monday

Time Temperature Precipitation Wind Pressure Humidity
00:00 -2°C° 0.1 mm 1 mps 736 mmHg 96%
01:00 -2°C° 0.1 mm 1 mps 736 mmHg 96%
02:00 -2°C° 0 mm 1 mps 736 mmHg 96%
03:00 -3°C° 0 mm 0 mps 736 mmHg 96%
04:00 -4°C° 0 mm 0 mps 736 mmHg 96%
05:00 -4°C° 0 mm 0 mps 737 mmHg 95%
06:00 -3°C° 0 mm 1 mps 737 mmHg 95%
07:00 -3°C° 0 mm 1 mps 737 mmHg 95%
08:00 -2°C° 0 mm 1 mps 738 mmHg 91%
09:00 -1°C° 0 mm 1 mps 738 mmHg 88%
10:00 0°C° 0 mm 1 mps 738 mmHg 84%
11:00 0°C° 0 mm 1 mps 738 mmHg 81%
12:00 +1°C° 0 mm 1 mps 738 mmHg 78%
13:00 +1°C° 0 mm 1 mps 738 mmHg 76%
14:00 0°C° 0 mm 1 mps 738 mmHg 79%
15:00 -1°C° 0 mm 1 mps 738 mmHg 83%
16:00 -2°C° 0 mm 1 mps 738 mmHg 87%
17:00 -2°C° 0 mm 1 mps 738 mmHg 87%
18:00 -2°C° 0 mm 1 mps 738 mmHg 87%
19:00 -3°C° 0 mm 1 mps 738 mmHg 87%
20:00 -3°C° 0 mm 1 mps 738 mmHg 87%
21:00 -3°C° 0 mm 1 mps 738 mmHg 87%
22:00 -3°C° 0 mm 1 mps 738 mmHg 87%
23:00 -5°C° 0 mm 2 mps 737 mmHg 87%

Day after tomorrow, 1 December, Tuesday

Time Temperature Precipitation Wind Pressure Humidity
00:00 -5°C° 0 mm 2 mps 737 mmHg 87%
01:00 -5°C° 0 mm 2 mps 737 mmHg 87%
02:00 -5°C° 0 mm 2 mps 737 mmHg 87%
03:00 -5°C° 0 mm 2 mps 737 mmHg 87%
04:00 -5°C° 0 mm 2 mps 736 mmHg 88%
05:00 -6°C° 0 mm 2 mps 736 mmHg 88%
06:00 -6°C° 0 mm 2 mps 736 mmHg 88%
07:00 -6°C° 0 mm 2 mps 736 mmHg 88%
08:00 -5°C° 0 mm 2 mps 736 mmHg 84%
09:00 -4°C° 0 mm 2 mps 736 mmHg 80%
10:00 -2°C° 0 mm 2 mps 736 mmHg 77%
11:00 0°C° 0 mm 1 mps 736 mmHg 75%
12:00 +1°C° 0 mm 1 mps 736 mmHg 73%
13:00 +2°C° 0 mm 1 mps 736 mmHg 72%
14:00 0°C° 0 mm 1 mps 735 mmHg 76%
15:00 -1°C° 0 mm 1 mps 735 mmHg 80%
16:00 -3°C° 0 mm 0 mps 735 mmHg 85%
17:00 -2°C° 0 mm 1 mps 735 mmHg 85%
18:00 -2°C° 0 mm 1 mps 735 mmHg 85%
19:00 -3°C° 0 mm 1 mps 736 mmHg 85%
20:00 -3°C° 0 mm 1 mps 736 mmHg 84%
21:00 -3°C° 0 mm 1 mps 736 mmHg 83%
22:00 -3°C° 0 mm 1 mps 736 mmHg 83%
23:00 -3°C° 0 mm 1 mps 736 mmHg 83%

2 December, Wednesday

Time Temperature Precipitation Wind Pressure Humidity
00:00 -3°C° 0 mm 1 mps 736 mmHg 82%
01:00 -4°C° 0 mm 0 mps 736 mmHg 82%
02:00 -4°C° 0 mm 0 mps 735 mmHg 81%
03:00 -4°C° 0 mm 0 mps 735 mmHg 81%
04:00 -4°C° 0 mm 1 mps 735 mmHg 80%
05:00 -4°C° 0 mm 1 mps 735 mmHg 79%
06:00 -4°C° 0 mm 1 mps 735 mmHg 78%
07:00 -4°C° 0 mm 1 mps 735 mmHg 78%
08:00 -3°C° 0 mm 1 mps 735 mmHg 74%
09:00 -2°C° 0 mm 0 mps 735 mmHg 71%
10:00 -1°C° 0 mm 0 mps 735 mmHg 67%
11:00 -1°C° 0 mm 0 mps 735 mmHg 66%
12:00 0°C° 0 mm 0 mps 734 mmHg 66%
13:00 0°C° 0 mm 0 mps 734 mmHg 65%
14:00 0°C° 0 mm 1 mps 734 mmHg 70%
15:00 -1°C° 0 mm 1 mps 733 mmHg 74%
16:00 -2°C° 0 mm 1 mps 733 mmHg 79%
17:00 -2°C° 0 mm 1 mps 733 mmHg 77%
18:00 -3°C° 0 mm 1 mps 733 mmHg 76%
19:00 -3°C° 0 mm 1 mps 733 mmHg 74%
20:00 -3°C° 0 mm 1 mps 733 mmHg 72%
21:00 -3°C° 0 mm 1 mps 733 mmHg 71%
22:00 -3°C° 0 mm 1 mps 733 mmHg 69%
23:00 -2°C° 0 mm 1 mps 732 mmHg 69%

3 December, Thursday

Time Temperature Precipitation Wind Pressure Humidity
00:00 -2°C° 0 mm 1 mps 732 mmHg 68%
01:00 -2°C° 0 mm 1 mps 732 mmHg 67%
02:00 -3°C° 0 mm 1 mps 732 mmHg 67%
03:00 -3°C° 0 mm 1 mps 731 mmHg 67%
04:00 -3°C° 0 mm 1 mps 731 mmHg 68%
05:00 -3°C° 0 mm 1 mps 731 mmHg 68%
06:00 -3°C° 0 mm 1 mps 731 mmHg 68%
07:00 -3°C° 0 mm 1 mps 731 mmHg 68%
08:00 -1°C° 0 mm 1 mps 731 mmHg 66%
09:00 0°C° 0 mm 1 mps 731 mmHg 64%
10:00 +1°C° 0 mm 1 mps 730 mmHg 62%
11:00 +1°C° 0 mm 1 mps 730 mmHg 63%
12:00 +2°C° 0 mm 1 mps 730 mmHg 65%
13:00 +2°C° 0 mm 0 mps 729 mmHg 66%
14:00 +2°C° 0 mm 1 mps 729 mmHg 68%
15:00 +1°C° 0 mm 1 mps 728 mmHg 70%
16:00 +1°C° 0 mm 1 mps 728 mmHg 72%
17:00 +1°C° 0 mm 1 mps 728 mmHg 73%
18:00 +1°C° 0 mm 1 mps 727 mmHg 75%
19:00 +1°C° 0 mm 1 mps 727 mmHg 76%
20:00 +1°C° 0 mm 1 mps 727 mmHg 76%
21:00 -1°C° 0 mm 2 mps 727 mmHg 77%
22:00 +1°C° 0 mm 2 mps 726 mmHg 78%
23:00 +1°C° 0 mm 2 mps 726 mmHg 79%

4 December, Friday

Time Temperature Precipitation Wind Pressure Humidity
00:00 +1°C° 0 mm 2 mps 726 mmHg 81%
01:00 +1°C° 0 mm 2 mps 725 mmHg 82%
02:00 +1°C° 0 mm 2 mps 725 mmHg 84%
03:00 +1°C° 0 mm 2 mps 725 mmHg 85%
04:00 +1°C° 0 mm 2 mps 724 mmHg 87%
05:00 +1°C° 0 mm 2 mps 724 mmHg 87%
06:00 +2°C° 0 mm 1 mps 724 mmHg 86%
07:00 +3°C° 0 mm 1 mps 724 mmHg 86%
08:00 +3°C° 0 mm 1 mps 724 mmHg 85%
09:00 +4°C° 0 mm 1 mps 724 mmHg 84%
10:00 +4°C° 0 mm 1 mps 724 mmHg 83%
11:00 +5°C° 0 mm 1 mps 724 mmHg 83%
12:00 +4°C° 0 mm 2 mps 724 mmHg 82%
13:00 +5°C° 0 mm 2 mps 723 mmHg 82%
14:00 +4°C° 0 mm 2 mps 723 mmHg 83%
15:00 +4°C° 0 mm 2 mps 723 mmHg 85%
16:00 +3°C° 0 mm 2 mps 723 mmHg 86%
17:00 +2°C° 0 mm 3 mps 723 mmHg 87%
18:00 +2°C° 0 mm 3 mps 723 mmHg 88%
19:00 +2°C° 0 mm 3 mps 723 mmHg 88%
20:00 +2°C° 0 mm 3 mps 722 mmHg 89%
21:00 +1°C° 0 mm 3 mps 722 mmHg 89%
22:00 +1°C° 0 mm 3 mps 722 mmHg 89%
23:00 +1°C° 0 mm 3 mps 722 mmHg 88%
Show more

We Need Your Consent

Meteoprog and our Service Providers may store and access personal data such as cookies, device identifiers or other similar technologies on your device and process such data to personalise content and ads, as well as provide social media features and to analyse the traffic.

  • Store and/or access information on your device

    Cookies, device identifiers or other information can be stored or accessed on your device for the purposes indicated above.

  • Personalised ads and content, ad and content measurement, audience insights, and products development

    Ads and content can be personalised based on a profile. More data can be added to better personalise ads and content. Ad and content performance can be measured. Insights about the audience who saw the ads and content can be derived. Such data can be used to develop or improve user’s experience, systems and software.

By clicking ‘I Agree’ you will allow the use of indicated cookies, device identifiers, web beacons or other similar technologies. Your settings can be changed in the browser on your device.

For certain purposes, legitimate interests may be relied on, rather than consent. You can read more about this in our Privacy and Cookie Policy.